TimeEDT,TemperatureF,Dew PointF,Humidity,Sea Level PressureIn,VisibilityMPH,Wind Direction,Wind SpeedMPH,Gust SpeedMPH,PrecipitationIn,Events,Conditions,WindDirDegrees,DateUTC
12:51 AM,66.0,57.9,75,29.86,-9999.0,NNE,32.2,43.7,N/A,,Unknown,20,2013-09-04 04:51:00
12:58 AM,64.4,59.0,83,29.89,-9999.0,North,20.7,43.7,N/A,,Unknown,360,2013-09-04 04:58:00
1:51 AM,63.0,57.9,84,29.90,-9999.0,NNE,5.8,-,N/A,,Unknown,20,2013-09-04 05:51:00
2:51 AM,59.0,55.0,87,29.96,-9999.0,ENE,12.7,-,N/A,,Unknown,60,2013-09-04 06:51:00
3:51 AM,57.0,52.0,83,29.98,-9999.0,ENE,13.8,20.7,N/A,,Unknown,70,2013-09-04 07:51:00
4:51 AM,55.9,50.0,80,30.01,-9999.0,East,15.0,23.0,N/A,,Unknown,80,2013-09-04 08:51:00
5:51 AM,55.0,45.0,69,30.03,-9999.0,East,20.7,-,N/A,,Unknown,80,2013-09-04 09:51:00
6:51 AM,54.0,45.0,72,30.07,-9999.0,East,17.3,20.7,N/A,,Unknown,80,2013-09-04 10:51:00
7:51 AM,54.0,46.0,75,30.09,-9999.0,East,13.8,20.7,N/A,,Unknown,80,2013-09-04 11:51:00
8:51 AM,54.0,43.0,66,30.12,-9999.0,Variable,4.6,-,N/A,,Unknown,0,2013-09-04 12:51:00
9:51 AM,55.0,44.1,67,30.14,-9999.0,East,6.9,-,N/A,,Unknown,90,2013-09-04 13:51:00
10:51 AM,54.0,44.1,69,30.16,-9999.0,ENE,12.7,-,N/A,,Unknown,60,2013-09-04 14:51:00
11:51 AM,54.0,44.1,69,30.17,-9999.0,ENE,6.9,-,N/A,,Unknown,60,2013-09-04 15:51:00
12:51 PM,55.0,42.1,62,30.16,-9999.0,NE,4.6,-,N/A,,Unknown,50,2013-09-04 16:51:00
1:51 PM,54.0,41.0,62,30.16,-9999.0,NNE,8.1,-,N/A,,Unknown,20,2013-09-04 17:51:00
2:51 PM,55.0,42.1,62,30.16,-9999.0,NNE,8.1,-,N/A,,Unknown,20,2013-09-04 18:51:00
3:51 PM,55.0,42.1,62,30.15,-9999.0,North,9.2,-,N/A,,Unknown,360,2013-09-04 19:51:00
4:51 PM,59.0,44.1,58,30.15,-9999.0,North,9.2,-,N/A,,Unknown,360,2013-09-04 20:51:00
5:51 PM,60.1,39.0,46,30.14,-9999.0,North,5.8,-,N/A,,Unknown,360,2013-09-04 21:51:00
6:51 PM,59.0,42.1,53,30.14,-9999.0,North,6.9,-,N/A,,Unknown,10,2013-09-04 22:51:00
7:51 PM,57.9,44.1,60,30.14,-9999.0,North,10.4,-,N/A,,Unknown,360,2013-09-04 23:51:00
8:51 PM,55.0,44.1,67,30.17,-9999.0,Calm,Calm,-,N/A,,Unknown,0,2013-09-05 00:51:00
9:51 PM,50.0,46.0,86,30.18,-9999.0,WSW,5.8,-,N/A,,Unknown,250,2013-09-05 01:51:00
10:51 PM,48.9,45.0,86,30.19,-9999.0,WSW,5.8,-,N/A,,Unknown,250,2013-09-05 02:51:00
11:51 PM,48.9,45.0,86,30.19,-9999.0,WSW,4.6,-,N/A,,Unknown,250,2013-09-05 03:51:00